星链-4313 (STARLINK-4313 )

导读

STARLINK-4313是美国太空探索技术公司(SpaceX)星链互联网卫星星座中的一颗卫星,于2022年7月11日发射升空,属于星链计划的组网卫星。星链计划旨在通过近地轨道卫星群,为全球用户提供高速互联网接入服务,该卫星后续正常入轨,服务于星链星座的全球网络覆盖。

基本信息
目录编号:
53064
目录名称:
STARLINK-4313
国际标识:
2022-077X
轨道中心:
EARTH
卫星名称:
星链-4313
卫星全名:
星链-4313 (STARLINK-4313 )
卫星状态:
在轨 (已飞行1437 天)
发射日期:
2022-07-11 UTC
国别 :
美国 (US)
星等 :
--
轨道信息
数据来源 国际轨道数据
星历时间: 2026-06-17T09:29:24+0800
10小时前
查看轨道信息
半长轴: 6927.631km
偏心率: 0.0001649
轨道倾角: 97.352°
近地点辐角 71.733°
升交点赤经 348.177°
平近点角 288.408°
近地点: 548.351km
远地点: 550.637km
周期: 95.639分钟
每日圈数: 15.056557
详细信息
固有亮度:
5
最大亮度:
2.5
卫星平台:
Starlink v1.5
覆盖范围:
全球
运营商:
太空探索技术公司
运营商所在国:
美国
制造商(研发单位):
太空探索技术公司
制造商所在国:
美国
使用方式:
暂无
卫星简介
星链(Starlink)计划是由太空探索技术公司(SpaceX)提出的一个巨型低轨卫星互联网星座项目,计划在2019年至2024年间在太空搭建由约1.2万颗卫星组成的“星链”网络,其中1584颗将部署在地球上空550千米处的近地轨道,并从2020年开始工作。该卫星仍在工作。
2D轨道图
3D轨道图
轨道高度分析图
轨道倾角分析图
轨道综合分析图
查看轨道综合分析图